| time (UTC) | temp F | wind direction | speed MPH | gust MPH | rain 1hr in | rain 24hr in | rain mn in | humidity % | barometer mb |
| 20260507191505 | 65 | 144 | 2.0 | 6.0 | 0.00 | 0.21 | 0.02 | 26 | 1017.8 |
| 20260507191005 | 65 | 125 | 2.0 | 5.0 | 0.00 | 0.21 | 0.02 | 27 | 1017.9 |
| 20260507190005 | 64 | 107 | 2.0 | 6.0 | 0.00 | 0.21 | 0.02 | 25 | 1018.1 |
| 20260507185504 | 64 | 105 | 2.0 | 7.0 | 0.00 | 0.21 | 0.02 | 26 | 1017.6 |
| 20260507184504 | 63 | 102 | 1.0 | 4.0 | 0.00 | 0.21 | 0.02 | 24 | 1017.7 |
| 20260507184004 | 63 | 89 | 1.0 | 6.0 | 0.00 | 0.21 | 0.02 | 25 | 1017.7 |
| 20260507183505 | 62 | 90 | 1.0 | 6.0 | 0.00 | 0.21 | 0.02 | 25 | 1017.8 |
| 20260507183004 | 62 | 101 | 1.0 | 5.0 | 0.00 | 0.21 | 0.02 | 25 | 1017.8 |
| 20260507182505 | 62 | 100 | 1.0 | 5.0 | 0.00 | 0.21 | 0.02 | 25 | 1017.9 |
| 20260507182004 | 62 | 104 | 1.0 | 4.0 | 0.00 | 0.21 | 0.02 | 26 | 1017.9 |
| 20260507181504 | 62 | 132 | 1.0 | 4.0 | 0.00 | 0.21 | 0.02 | 25 | 1018.0 |
| 20260507181005 | 63 | 155 | 1.0 | 4.0 | 0.00 | 0.21 | 0.02 | 23 | 1017.9 |
| 20260507180504 | 63 | 167 | 1.0 | 4.0 | 0.00 | 0.21 | 0.02 | 26 | 1018.1 |
| 20260507180005 | 63 | 152 | 1.0 | 4.0 | 0.00 | 0.21 | 0.02 | 25 | 1018.3 |
| 20260507175504 | 62 | 93 | 1.0 | 3.0 | 0.00 | 0.21 | 0.02 | 25 | 1018.0 |
| 20260507175004 | 62 | 94 | 1.0 | 5.0 | 0.00 | 0.21 | 0.02 | 26 | 1018.1 |
| 20260507174505 | 62 | 96 | 1.0 | 5.0 | 0.00 | 0.21 | 0.02 | 26 | 1018.2 |
| 20260507174004 | 62 | 104 | 1.0 | 5.0 | 0.00 | 0.21 | 0.02 | 27 | 1018.3 |
| 20260507173505 | 61 | 109 | 2.0 | 9.0 | 0.00 | 0.21 | 0.02 | 25 | 1018.5 |
| 20260507173004 | 61 | 109 | 1.0 | 9.0 | 0.00 | 0.21 | 0.02 | 25 | 1018.7 |
| 20260507172504 | 62 | 149 | 1.0 | 6.0 | 0.00 | 0.21 | 0.02 | 27 | 1018.7 |
| 20260507172004 | 61 | 105 | 1.0 | 6.0 | 0.00 | 0.21 | 0.02 | 25 | 1018.9 |
| 20260507171504 | 61 | 95 | 1.0 | 5.0 | 0.00 | 0.21 | 0.02 | 25 | 1019.0 |
| 20260507171005 | 62 | 106 | 1.0 | 4.0 | 0.00 | 0.21 | 0.02 | 25 | 1019.0 |
| 20260507170004 | 61 | 97 | 1.0 | 3.0 | 0.00 | 0.21 | 0.02 | 25 | 1019.2 |
| 20260507165505 | 60 | 108 | 1.0 | 4.0 | 0.00 | 0.21 | 0.02 | 26 | 1018.8 |
| 20260507165005 | 60 | 115 | 1.0 | 4.0 | 0.00 | 0.21 | 0.02 | 27 | 1019.0 |
| 20260507164504 | 59 | 110 | 1.0 | 4.0 | 0.00 | 0.21 | 0.02 | 25 | 1018.9 |
| 20260507164004 | 59 | 117 | 1.0 | 4.0 | 0.00 | 0.21 | 0.02 | 26 | 1019.0 |
| 20260507163505 | 59 | 122 | 1.0 | 4.0 | 0.01 | 0.21 | 0.02 | 25 | 1019.0 |
| 20260507163004 | 59 | 109 | 1.0 | 3.0 | 0.01 | 0.21 | 0.02 | 25 | 1019.1 |
| 20260507162504 | 58 | 97 | 1.0 | 4.0 | 0.01 | 0.21 | 0.02 | 29 | 1018.8 |
| 20260507162004 | 58 | 97 | 2.0 | 5.0 | 0.01 | 0.21 | 0.02 | 28 | 1018.9 |
| 20260507161005 | 57 | 109 | 1.0 | 5.0 | 0.01 | 0.21 | 0.02 | 27 | 1018.9 |
| 20260507160504 | 57 | 120 | 0.0 | 3.0 | 0.01 | 0.21 | 0.02 | 30 | 1019.2 |
| 20260507160005 | 57 | 104 | 0.0 | 2.0 | 0.01 | 0.21 | 0.02 | 30 | 1019.2 |
| 20260507155505 | 56 | 85 | 1.0 | 4.0 | 0.02 | 0.21 | 0.02 | 31 | 1018.8 |
| 20260507155005 | 55 | 93 | 1.0 | 5.0 | 0.02 | 0.21 | 0.02 | 32 | 1018.9 |
| 20260507154504 | 55 | 112 | 1.0 | 5.0 | 0.02 | 0.21 | 0.02 | 32 | 1019.0 |
| 20260507154005 | 55 | 111 | 1.0 | 4.0 | 0.02 | 0.21 | 0.02 | 34 | 1019.0 |
| 20260507153505 | 55 | 112 | 1.0 | 3.0 | 0.01 | 0.20 | 0.01 | 33 | 1019.1 |
| 20260507153005 | 54 | 108 | 1.0 | 6.0 | 0.01 | 0.20 | 0.01 | 36 | 1019.1 |
| 20260507152505 | 53 | 100 | 2.0 | 6.0 | 0.01 | 0.20 | 0.01 | 34 | 1019.1 |
| 20260507152005 | 53 | 104 | 1.0 | 6.0 | 0.01 | 0.20 | 0.01 | 35 | 1019.1 |
| 20260507151504 | 52 | 101 | 1.0 | 4.0 | 0.01 | 0.20 | 0.01 | 38 | 1019.2 |
| 20260507151005 | 52 | 90 | 1.0 | 3.0 | 0.01 | 0.20 | 0.01 | 38 | 1019.2 |
| 20260507150504 | 52 | 98 | 0.0 | 2.0 | 0.01 | 0.20 | 0.01 | 40 | 1019.3 |
| 20260507145505 | 50 | 104 | 0.0 | 2.0 | 0.00 | 0.19 | 0.00 | 43 | 1018.9 |
| 20260507145004 | 50 | 124 | 0.0 | 3.0 | 0.00 | 0.19 | 0.00 | 41 | 1018.8 |
| 20260507144504 | 49 | 153 | 0.0 | 3.0 | 0.00 | 0.19 | 0.00 | 42 | 1018.9 |
| 20260507144005 | 48 | 170 | 0.0 | 3.0 | 0.00 | 0.19 | 0.00 | 46 | 1019.1 |
| 20260507143504 | 48 | 129 | 0.0 | 1.0 | 0.00 | 0.19 | 0.00 | 46 | 1019.1 |
| 20260507143004 | 48 | 149 | 0.0 | 2.0 | 0.00 | 0.19 | 0.00 | 47 | 1019.1 |
| 20260507142504 | 47 | 161 | 0.0 | 2.0 | 0.00 | 0.19 | 0.00 | 48 | 1019.1 |
| 20260507142004 | 46 | 151 | 0.0 | 1.0 | 0.00 | 0.19 | 0.00 | 50 | 1019.2 |
| 20260507141504 | 46 | 189 | 0.0 | 1.0 | 0.00 | 0.19 | 0.00 | 50 | 1019.2 |
| 20260507141004 | 45 | 183 | 0.0 | 1.0 | 0.00 | 0.19 | 0.00 | 51 | 1019.2 |
| 20260507140504 | 44 | 202 | 0.0 | 1.0 | 0.00 | 0.19 | 0.00 | 50 | 1019.3 |
| 20260507140005 | 44 | 209 | 0.0 | 1.0 | 0.00 | 0.19 | 0.00 | 51 | 1019.3 |
| 20260507135504 | 43 | 207 | 0.0 | 1.0 | 0.00 | 0.19 | 0.00 | 51 | 1018.8 |
| 20260507135004 | 43 | 194 | 0.0 | 1.0 | 0.00 | 0.19 | 0.00 | 51 | 1018.8 |
| 20260507134004 | 41 | 157 | 0.0 | 1.0 | 0.00 | 0.19 | 0.00 | 53 | 1018.8 |
| 20260507133004 | 40 | 211 | 0.0 | 5.0 | 0.00 | 0.19 | 0.00 | 54 | 1018.7 |
| 20260507132504 | 39 | 207 | 0.0 | 5.0 | 0.00 | 0.19 | 0.00 | 54 | 1018.5 |
| 20260507132005 | 39 | 205 | 0.0 | 3.0 | 0.00 | 0.19 | 0.00 | 56 | 1018.5 |
| 20260507131505 | 38 | 204 | 0.0 | 3.0 | 0.00 | 0.19 | 0.00 | 57 | 1018.5 |
| 20260507131005 | 37 | 206 | 1.0 | 3.0 | 0.00 | 0.19 | 0.00 | 58 | 1018.4 |
| 20260507130504 | 36 | 204 | 1.0 | 3.0 | 0.00 | 0.19 | 0.00 | 59 | 1018.4 |
| 20260507130005 | 35 | 203 | 0.0 | 2.0 | 0.00 | 0.19 | 0.00 | 60 | 1018.4 |
| 20260507125505 | 35 | 211 | 0.0 | 4.0 | 0.00 | 0.19 | 0.00 | 60 | 1018.3 |
| 20260507125004 | 34 | 206 | 0.0 | 4.0 | 0.00 | 0.19 | 0.00 | 61 | 1018.3 |
| 20260507124504 | 34 | 199 | 0.0 | 3.0 | 0.00 | 0.19 | 0.00 | 62 | 1018.2 |
| 20260507124005 | 34 | 222 | 0.0 | 1.0 | 0.00 | 0.19 | 0.00 | 61 | 1018.2 |
| 20260507123504 | 34 | 220 | 0.0 | 1.0 | 0.00 | 0.19 | 0.00 | 62 | 1018.2 |
| 20260507123005 | 33 | 223 | 0.0 | 3.0 | 0.00 | 0.19 | 0.00 | 61 | 1018.2 |
| 20260507122504 | 33 | 221 | 0.0 | 3.0 | 0.00 | 0.19 | 0.00 | 62 | 1018.2 |
| 20260507121504 | 33 | 211 | 0.0 | 2.0 | 0.00 | 0.19 | 0.00 | 61 | 1018.2 |
| 20260507121004 | 33 | 200 | 1.0 | 4.0 | 0.00 | 0.19 | 0.00 | 61 | 1018.2 |
| 20260507120505 | 33 | 201 | 1.0 | 4.0 | 0.00 | 0.19 | 0.00 | 61 | 1018.3 |
| 20260507120005 | 33 | 210 | 0.0 | 2.0 | 0.00 | 0.19 | 0.00 | 62 | 1018.3 |
| 20260507115505 | 33 | 220 | 0.0 | 1.0 | 0.00 | 0.19 | 0.00 | 61 | 1017.7 |
| 20260507115004 | 33 | 213 | 0.0 | 4.0 | 0.00 | 0.19 | 0.00 | 61 | 1017.9 |
| 20260507114504 | 33 | 208 | 0.0 | 4.0 | 0.00 | 0.19 | 0.00 | 61 | 1017.9 |
| 20260507114004 | 32 | 197 | 0.0 | 3.0 | 0.00 | 0.19 | 0.00 | 61 | 1017.9 |
| 20260507113504 | 32 | 200 | 0.0 | 3.0 | 0.00 | 0.19 | 0.00 | 61 | 1017.9 |
| 20260507113004 | 32 | 216 | 0.0 | 1.0 | 0.00 | 0.19 | 0.00 | 60 | 1017.9 |
| 20260507112004 | 32 | 224 | 0.0 | 1.0 | 0.00 | 0.19 | 0.00 | 60 | 1017.8 |
| 20260507111506 | 32 | 226 | 0.0 | 1.0 | 0.00 | 0.19 | 0.00 | 60 | 1017.8 |
| 20260507111004 | 32 | 223 | 0.0 | 1.0 | 0.00 | 0.19 | 0.00 | 60 | 1017.8 |
| 20260507110504 | 32 | 210 | 0.0 | 2.0 | 0.00 | 0.19 | 0.00 | 60 | 1018.0 |
| 20260507110004 | 32 | 189 | 0.0 | 2.0 | 0.00 | 0.19 | 0.00 | 60 | 1017.8 |
| 20260507105504 | 32 | 191 | 1.0 | 3.0 | 0.00 | 0.19 | 0.00 | 60 | 1017.7 |
| 20260507105005 | 32 | 185 | 1.0 | 3.0 | 0.00 | 0.19 | 0.00 | 60 | 1017.7 |
| 20260507104504 | 32 | 189 | 1.0 | 3.0 | 0.00 | 0.19 | 0.00 | 61 | 1017.6 |
| 20260507103504 | 32 | 195 | 0.0 | 2.0 | 0.00 | 0.19 | 0.00 | 62 | 1017.7 |
| 20260507103005 | 32 | 205 | 1.0 | 3.0 | 0.00 | 0.19 | 0.00 | 62 | 1017.7 |
| 20260507102504 | 32 | 208 | 1.0 | 3.0 | 0.00 | 0.19 | 0.00 | 62 | 1017.7 |
| 20260507102006 | 32 | 206 | 1.0 | 3.0 | 0.00 | 0.19 | 0.00 | 63 | 1017.8 |
| 20260507101504 | 32 | 206 | 1.0 | 3.0 | 0.00 | 0.19 | 0.00 | 63 | 1017.8 |
| 20260507101004 | 32 | 209 | 0.0 | 2.0 | 0.00 | 0.19 | 0.00 | 63 | 1018.0 |
| 20260507100504 | 32 | 214 | 0.0 | 2.0 | 0.00 | 0.19 | 0.00 | 63 | 1018.0 |
| 20260507100005 | 32 | 212 | 0.0 | 2.0 | 0.00 | 0.19 | 0.00 | 64 | 1018.1 |
| 20260507095004 | 31 | 217 | 0.0 | 2.0 | 0.00 | 0.19 | 0.00 | 65 | 1018.0 |
| 20260507094504 | 31 | 217 | 0.0 | 2.0 | 0.00 | 0.19 | 0.00 | 65 | 1017.9 |
| 20260507094005 | 31 | 216 | 0.0 | 2.0 | 0.00 | 0.19 | 0.00 | 65 | 1018.0 |
| 20260507093504 | 31 | 208 | 0.0 | 2.0 | 0.00 | 0.19 | 0.00 | 66 | 1018.0 |
| 20260507092505 | 31 | 203 | 1.0 | 2.0 | 0.00 | 0.19 | 0.00 | 67 | 1018.0 |
| 20260507092005 | 31 | 209 | 0.0 | 2.0 | 0.00 | 0.19 | 0.00 | 69 | 1018.0 |
| 20260507091504 | 30 | 204 | 0.0 | 1.0 | 0.00 | 0.19 | 0.00 | 70 | 1018.2 |
| 20260507091004 | 30 | 205 | 0.0 | 1.0 | 0.00 | 0.19 | 0.00 | 71 | 1018.2 |
| 20260507090504 | 30 | 205 | 0.0 | 1.0 | 0.00 | 0.19 | 0.00 | 72 | 1018.3 |
| 20260507090005 | 30 | 205 | 0.0 | 1.0 | 0.00 | 0.19 | 0.00 | 73 | 1018.4 |
| 20260507085504 | 30 | 205 | 0.0 | 1.0 | 0.00 | 0.19 | 0.00 | 74 | 1018.4 |
| 20260507085004 | 30 | 0 | 0.0 | 0.0 | 0.00 | 0.19 | 0.00 | 75 | 1018.3 |
| 20260507084505 | 30 | 201 | 0.0 | 1.0 | 0.00 | 0.19 | 0.00 | 75 | 1018.3 |
| 20260507084004 | 30 | 216 | 0.0 | 2.0 | 0.00 | 0.19 | 0.00 | 76 | 1018.3 |
| 20260507083504 | 30 | 216 | 0.0 | 2.0 | 0.00 | 0.19 | 0.00 | 78 | 1018.4 |
| 20260507083005 | 29 | 177 | 0.0 | 1.0 | 0.00 | 0.19 | 0.00 | 78 | 1018.2 |
| 20260507082504 | 29 | 167 | 0.0 | 1.0 | 0.00 | 0.19 | 0.00 | 80 | 1018.5 |
| 20260507082004 | 29 | 169 | 0.0 | 1.0 | 0.00 | 0.19 | 0.00 | 81 | 1018.5 |
| 20260507081504 | 29 | 190 | 0.0 | 2.0 | 0.00 | 0.19 | 0.00 | 82 | 1018.5 |
| 20260507081005 | 28 | 209 | 0.0 | 2.0 | 0.00 | 0.19 | 0.00 | 84 | 1018.5 |
| 20260507080504 | 28 | 236 | 0.0 | 1.0 | 0.00 | 0.19 | 0.00 | 85 | 1018.6 |
| 20260507080005 | 28 | 255 | 0.0 | 1.0 | 0.00 | 0.19 | 0.00 | 85 | 1018.7 |
| 20260507075504 | 28 | 0 | 0.0 | 0.0 | 0.00 | 0.19 | 0.00 | 86 | 1018.7 |
| 20260507075005 | 28 | 0 | 0.0 | 0.0 | 0.00 | 0.19 | 0.00 | 86 | 1018.6 |
| 20260507074504 | 28 | 0 | 0.0 | 0.0 | 0.00 | 0.19 | 0.00 | 87 | 1018.7 |
| 20260507074004 | 28 | 0 | 0.0 | 0.0 | 0.00 | 0.19 | 0.00 | 88 | 1018.8 |
| 20260507073004 | 28 | 0 | 0.0 | 0.0 | 0.00 | 0.19 | 0.00 | 90 | 1018.9 |
| 20260507072505 | 28 | 0 | 0.0 | 0.0 | 0.00 | 0.19 | 0.00 | 91 | 1018.9 |
| 20260507071505 | 27 | 0 | 0.0 | 0.0 | 0.00 | 0.19 | 0.00 | 93 | 1018.9 |
| 20260507071004 | 26 | 0 | 0.0 | 0.0 | 0.00 | 0.19 | 0.00 | 93 | 1018.9 |
| 20260507070504 | 26 | 0 | 0.0 | 0.0 | 0.00 | 0.19 | 0.00 | 93 | 1018.9 |
| 20260507070009 | 26 | 0 | 0.0 | 0.0 | 0.00 | 0.19 | 0.00 | 93 | 1018.9 |
| 20260507065504 | 26 | 0 | 0.0 | 0.0 | 0.00 | 0.19 | 0.00 | 93 | 1019.0 |
| 20260507065004 | 27 | 0 | 0.0 | 0.0 | 0.00 | 0.19 | 0.00 | 93 | 1018.9 |
| 20260507064504 | 27 | 0 | 0.0 | 0.0 | 0.00 | 0.19 | 0.00 | 93 | 1018.9 |
| 20260507064004 | 27 | 0 | 0.0 | 0.0 | 0.00 | 0.19 | 0.00 | 93 | 1019.0 |
| 20260507063004 | 27 | 0 | 0.0 | 0.0 | 0.00 | 0.19 | 0.00 | 93 | 1018.9 |
| 20260507062504 | 27 | 0 | 0.0 | 0.0 | 0.00 | 0.19 | 0.00 | 93 | 1018.9 |
| 20260507062004 | 27 | 0 | 0.0 | 0.0 | 0.00 | 0.19 | 0.00 | 93 | 1018.9 |
| 20260507061504 | 27 | 0 | 0.0 | 0.0 | 0.00 | 0.19 | 0.00 | 93 | 1018.9 |
| 20260507061004 | 28 | 0 | 0.0 | 0.0 | 0.00 | 0.19 | 0.00 | 93 | 1018.9 |
| 20260507060504 | 28 | 0 | 0.0 | 0.0 | 0.00 | 0.19 | 0.00 | 93 | 1018.9 |
| 20260507060009 | 28 | 0 | 0.0 | 0.0 | 0.00 | 0.19 | 0.00 | 93 | 1018.9 |
| 20260507055504 | 28 | 0 | 0.0 | 0.0 | 0.00 | 0.19 | 0.19 | 93 | 1018.8 |
| 20260507055005 | 28 | 0 | 0.0 | 0.0 | 0.00 | 0.19 | 0.19 | 93 | 1018.7 |
| 20260507054504 | 29 | 0 | 0.0 | 0.0 | 0.00 | 0.19 | 0.19 | 92 | 1018.6 |
| 20260507054005 | 29 | 0 | 0.0 | 0.0 | 0.00 | 0.19 | 0.19 | 92 | 1018.6 |
| 20260507053504 | 29 | 321 | 0.0 | 1.0 | 0.00 | 0.19 | 0.19 | 92 | 1018.7 |
| 20260507053005 | 29 | 321 | 0.0 | 1.0 | 0.00 | 0.19 | 0.19 | 92 | 1018.7 |
| 20260507052504 | 29 | 314 | 0.0 | 2.0 | 0.00 | 0.19 | 0.19 | 92 | 1018.7 |
| 20260507052005 | 29 | 314 | 0.0 | 2.0 | 0.00 | 0.19 | 0.19 | 92 | 1018.6 |
| 20260507050504 | 30 | 311 | 0.0 | 2.0 | 0.00 | 0.19 | 0.19 | 91 | 1018.6 |
| 20260507050005 | 30 | 282 | 0.0 | 2.0 | 0.00 | 0.19 | 0.19 | 91 | 1018.6 |
| 20260507045504 | 30 | 284 | 0.0 | 2.0 | 0.00 | 0.19 | 0.19 | 91 | 1018.6 |
| 20260507045005 | 30 | 297 | 0.0 | 2.0 | 0.00 | 0.19 | 0.19 | 91 | 1018.7 |
| 20260507044504 | 30 | 281 | 0.0 | 2.0 | 0.00 | 0.19 | 0.19 | 91 | 1018.7 |
| 20260507044004 | 30 | 287 | 0.0 | 2.0 | 0.00 | 0.19 | 0.19 | 91 | 1018.6 |
| 20260507043504 | 30 | 303 | 0.0 | 2.0 | 0.00 | 0.19 | 0.19 | 91 | 1018.7 |
| 20260507042504 | 30 | 303 | 0.0 | 3.0 | 0.00 | 0.19 | 0.19 | 91 | 1018.8 |
| 20260507042004 | 30 | 303 | 0.0 | 2.0 | 0.00 | 0.19 | 0.19 | 91 | 1018.8 |
| 20260507041504 | 30 | 300 | 1.0 | 3.0 | 0.00 | 0.19 | 0.19 | 90 | 1018.8 |
| 20260507041005 | 30 | 304 | 0.0 | 3.0 | 0.00 | 0.19 | 0.19 | 90 | 1018.9 |
| 20260507040504 | 30 | 307 | 0.0 | 3.0 | 0.00 | 0.19 | 0.19 | 90 | 1018.8 |
| 20260507040004 | 30 | 304 | 0.0 | 3.0 | 0.00 | 0.19 | 0.19 | 89 | 1018.8 |
| 20260507035504 | 30 | 299 | 0.0 | 2.0 | 0.00 | 0.19 | 0.19 | 89 | 1018.8 |
| 20260507034004 | 30 | 302 | 0.0 | 3.0 | 0.00 | 0.19 | 0.19 | 87 | 1018.7 |
| 20260507033004 | 31 | 68 | 0.0 | 1.0 | 0.00 | 0.19 | 0.19 | 87 | 1018.6 |
| 20260507032004 | 31 | 309 | 0.0 | 2.0 | 0.00 | 0.19 | 0.19 | 86 | 1018.4 |
| 20260507031504 | 31 | 302 | 0.0 | 2.0 | 0.00 | 0.19 | 0.19 | 86 | 1018.4 |
| 20260507031005 | 31 | 300 | 0.0 | 2.0 | 0.00 | 0.19 | 0.19 | 85 | 1018.4 |
| 20260507030504 | 31 | 300 | 0.0 | 1.0 | 0.00 | 0.19 | 0.19 | 85 | 1018.3 |
| 20260507030005 | 31 | 278 | 0.0 | 2.0 | 0.00 | 0.19 | 0.19 | 85 | 1018.3 |
| 20260507025504 | 31 | 222 | 0.0 | 2.0 | 0.00 | 0.19 | 0.19 | 84 | 1018.2 |
| 20260507025005 | 31 | 128 | 0.0 | 1.0 | 0.00 | 0.19 | 0.19 | 84 | 1018.2 |
| 20260507023504 | 32 | 356 | 0.0 | 2.0 | 0.00 | 0.19 | 0.19 | 83 | 1018.1 |
| 20260507023004 | 32 | 97 | 0.0 | 2.0 | 0.00 | 0.19 | 0.19 | 82 | 1018.1 |
| 20260507022504 | 32 | 83 | 0.0 | 3.0 | 0.00 | 0.19 | 0.19 | 81 | 1018.1 |
| 20260507022005 | 32 | 76 | 0.0 | 3.0 | 0.00 | 0.19 | 0.19 | 81 | 1018.1 |
| 20260507021005 | 32 | 84 | 1.0 | 3.0 | 0.01 | 0.19 | 0.19 | 80 | 1018.0 |
| 20260507020504 | 33 | 75 | 1.0 | 6.0 | 0.01 | 0.19 | 0.19 | 79 | 1018.0 |
| 20260507020005 | 33 | 60 | 1.0 | 6.0 | 0.01 | 0.19 | 0.19 | 79 | 1017.9 |
| 20260507015504 | 33 | 292 | 0.0 | 4.0 | 0.01 | 0.19 | 0.19 | 79 | 1017.8 |
| 20260507014504 | 34 | 80 | 1.0 | 4.0 | 0.01 | 0.19 | 0.19 | 77 | 1017.9 |
| 20260507014005 | 34 | 68 | 1.0 | 7.0 | 0.01 | 0.19 | 0.19 | 76 | 1017.8 |
| 20260507013504 | 34 | 77 | 1.0 | 7.0 | 0.01 | 0.19 | 0.19 | 76 | 1018.0 |
| 20260507013005 | 34 | 92 | 1.0 | 3.0 | 0.01 | 0.19 | 0.19 | 76 | 1017.9 |
| 20260507012504 | 35 | 81 | 1.0 | 5.0 | 0.01 | 0.19 | 0.19 | 75 | 1017.9 |
| 20260507012004 | 35 | 72 | 1.0 | 6.0 | 0.01 | 0.19 | 0.19 | 74 | 1017.9 |
| 20260507011505 | 35 | 66 | 2.0 | 10.0 | 0.00 | 0.18 | 0.18 | 73 | 1017.7 |
| 20260507011004 | 35 | 64 | 2.0 | 10.0 | 0.00 | 0.18 | 0.18 | 73 | 1017.7 |
| 20260507010504 | 36 | 63 | 2.0 | 9.0 | 0.00 | 0.18 | 0.18 | 73 | 1017.9 |
| 20260507005504 | 36 | 64 | 1.0 | 5.0 | 0.01 | 0.18 | 0.18 | 72 | 1017.7 |
| 20260507005004 | 36 | 57 | 2.0 | 7.0 | 0.01 | 0.19 | 0.18 | 72 | 1017.7 |
| 20260507004504 | 36 | 60 | 2.0 | 7.0 | 0.01 | 0.19 | 0.18 | 70 | 1017.6 |
| 20260507004005 | 37 | 70 | 2.0 | 7.0 | 0.01 | 0.19 | 0.18 | 68 | 1017.5 |
| 20260507003504 | 38 | 69 | 2.0 | 9.0 | 0.01 | 0.19 | 0.18 | 67 | 1017.6 |
| 20260507003004 | 39 | 66 | 2.0 | 9.0 | 0.01 | 0.19 | 0.18 | 65 | 1017.5 |
| 20260507002004 | 40 | 328 | 1.0 | 6.0 | 0.02 | 0.19 | 0.18 | 65 | 1017.6 |
| 20260507001505 | 40 | 113 | 1.0 | 4.0 | 0.02 | 0.19 | 0.18 | 64 | 1017.6 |
| 20260507001004 | 40 | 78 | 1.0 | 6.0 | 0.02 | 0.19 | 0.18 | 66 | 1017.6 |
| 20260507000505 | 40 | 85 | 1.0 | 6.0 | 0.02 | 0.19 | 0.18 | 64 | 1017.7 |
| 20260507000004 | 41 | 107 | 1.0 | 5.0 | 0.02 | 0.18 | 0.17 | 62 | 1017.7 |
| 20260506235505 | 41 | 101 | 1.0 | 5.0 | 0.02 | 0.18 | 0.17 | 61 | 1017.6 |
| 20260506235004 | 42 | 99 | 0.0 | 5.0 | 0.02 | 0.18 | 0.17 | 59 | 1017.7 |
| 20260506234504 | 42 | 104 | 1.0 | 5.0 | 0.02 | 0.19 | 0.17 | 64 | 1017.5 |
| 20260506233504 | 41 | 76 | 0.0 | 2.0 | 0.03 | 0.19 | 0.17 | 67 | 1017.4 |
| 20260506233004 | 40 | 100 | 0.0 | 2.0 | 0.03 | 0.19 | 0.17 | 67 | 1017.6 |
| 20260506231504 | 39 | 57 | 0.0 | 2.0 | 0.03 | 0.18 | 0.16 | 69 | 1017.8 |
| 20260506231005 | 38 | 307 | 0.0 | 1.0 | 0.04 | 0.18 | 0.16 | 68 | 1017.7 |
| 20260506230504 | 39 | 75 | 0.0 | 1.0 | 0.04 | 0.18 | 0.16 | 68 | 1017.7 |
| 20260506230005 | 39 | 91 | 0.0 | 1.0 | 0.03 | 0.17 | 0.15 | 70 | 1017.7 |
| 20260506225004 | 38 | 166 | 0.0 | 2.0 | 0.04 | 0.17 | 0.15 | 73 | 1017.6 |
| 20260506224504 | 37 | 169 | 0.0 | 2.0 | 0.04 | 0.17 | 0.15 | 70 | 1017.5 |
| 20260506223504 | 37 | 159 | 0.0 | 2.0 | 0.05 | 0.17 | 0.14 | 73 | 1017.7 |
| 20260506223005 | 37 | 185 | 0.0 | 2.0 | 0.06 | 0.17 | 0.14 | 75 | 1017.7 |
| 20260506222504 | 36 | 177 | 0.0 | 2.0 | 0.06 | 0.16 | 0.13 | 74 | 1017.6 |
| 20260506222004 | 36 | 157 | 0.0 | 3.0 | 0.07 | 0.16 | 0.13 | 73 | 1017.7 |
| 20260506220504 | 37 | 186 | 0.0 | 2.0 | 0.10 | 0.16 | 0.12 | 72 | 1017.9 |
| 20260506220005 | 38 | 209 | 0.0 | 1.0 | 0.10 | 0.16 | 0.12 | 73 | 1017.8 |
| 20260506215504 | 38 | 212 | 0.0 | 4.0 | 0.10 | 0.16 | 0.12 | 73 | 1017.9 |
| 20260506215006 | 37 | 187 | 0.0 | 4.0 | 0.09 | 0.15 | 0.11 | 72 | 1017.9 |
| 20260506214004 | 37 | 170 | 1.0 | 6.0 | 0.09 | 0.14 | 0.10 | 71 | 1017.8 |
| 20260506213504 | 37 | 154 | 2.0 | 6.0 | 0.08 | 0.14 | 0.09 | 74 | 1018.0 |
| 20260506213004 | 37 | 154 | 2.0 | 5.0 | 0.07 | 0.13 | 0.08 | 77 | 1017.9 |
| 20260506212504 | 37 | 160 | 2.0 | 5.0 | 0.06 | 0.12 | 0.07 | 76 | 1018.0 |
| 20260506212004 | 36 | 160 | 2.0 | 6.0 | 0.05 | 0.11 | 0.06 | 74 | 1018.1 |
| 20260506211504 | 37 | 160 | 2.0 | 6.0 | 0.03 | 0.09 | 0.04 | 75 | 1018.0 |
| 20260506210004 | 36 | 160 | 1.0 | 4.0 | 0.02 | 0.07 | 0.02 | 78 | 1017.8 |
| 20260506205504 | 36 | 159 | 2.0 | 6.0 | 0.02 | 0.07 | 0.02 | 76 | 1017.7 |
| 20260506205004 | 36 | 157 | 1.0 | 6.0 | 0.02 | 0.07 | 0.02 | 76 | 1018.2 |
| 20260506204504 | 37 | 161 | 1.0 | 4.0 | 0.01 | 0.06 | 0.01 | 77 | 1018.2 |
| 20260506204004 | 36 | 170 | 1.0 | 4.0 | 0.01 | 0.06 | 0.01 | 80 | 1017.8 |
| 20260506203505 | 36 | 170 | 1.0 | 4.0 | 0.01 | 0.06 | 0.01 | 79 | 1017.8 |
| 20260506203004 | 35 | 153 | 1.0 | 6.0 | 0.01 | 0.06 | 0.01 | 81 | 1017.8 |
| 20260506202505 | 34 | 155 | 2.0 | 7.0 | 0.01 | 0.06 | 0.01 | 81 | 1017.9 |
| 20260506202004 | 34 | 165 | 3.0 | 7.0 | 0.01 | 0.06 | 0.01 | 81 | 1017.8 |
| 20260506201504 | 34 | 171 | 2.0 | 7.0 | 0.01 | 0.06 | 0.01 | 80 | 1017.8 |
| 20260506201004 | 35 | 170 | 1.0 | 5.0 | 0.01 | 0.07 | 0.01 | 82 | 1017.6 |
| 20260506200504 | 34 | 151 | 2.0 | 7.0 | 0.00 | 0.06 | 0.00 | 83 | 1017.5 |
| 20260506200005 | 33 | 154 | 3.0 | 7.0 | 0.00 | 0.06 | 0.00 | 82 | 1017.5 |
| 20260506195504 | 33 | 165 | 3.0 | 7.0 | 0.00 | 0.06 | 0.00 | 83 | 1017.4 |
| 20260506195004 | 33 | 182 | 2.0 | 8.0 | 0.00 | 0.06 | 0.00 | 83 | 1017.3 |
| 20260506194504 | 33 | 183 | 2.0 | 8.0 | 0.00 | 0.06 | 0.00 | 81 | 1017.3 |
| 20260506194004 | 33 | 192 | 2.0 | 8.0 | 0.00 | 0.06 | 0.00 | 81 | 1017.7 |
| 20260506192505 | 33 | 159 | 2.0 | 6.0 | 0.00 | 0.07 | 0.00 | 83 | 1017.2 |
| 20260506192004 | 33 | 166 | 2.0 | 6.0 | 0.00 | 0.07 | 0.00 | 83 | 1017.8 |